TimeMST,TemperatureF,Dew PointF,Humidity,Sea Level PressureIn,VisibilityMPH,Wind Direction,Wind SpeedMPH,Gust SpeedMPH,PrecipitationIn,Events,Conditions,WindDirDegrees,DateUTC
12:53 AM,52.0,23.0,32,29.27,10.0,West,12.7,-,N/A,,Clear,270,2006-01-01 07:53:00
1:53 AM,53.1,24.1,32,29.26,10.0,West,13.8,-,N/A,,Clear,260,2006-01-01 08:53:00
2:53 AM,52.0,25.0,35,29.25,10.0,West,15.0,-,N/A,,Clear,260,2006-01-01 09:53:00
3:53 AM,53.1,25.0,34,29.23,10.0,West,20.7,-,N/A,,Clear,280,2006-01-01 10:53:00
4:53 AM,52.0,26.1,37,29.26,10.0,West,20.7,-,N/A,,Clear,260,2006-01-01 11:53:00
5:53 AM,48.9,25.0,39,29.29,10.0,WSW,17.3,-,N/A,,Clear,250,2006-01-01 12:53:00
6:53 AM,48.9,25.0,39,29.28,10.0,WSW,21.9,-,N/A,,Mostly Cloudy,250,2006-01-01 13:53:00
7:53 AM,50.0,24.1,36,29.27,10.0,West,18.4,27.6,N/A,,Partly Cloudy,270,2006-01-01 14:53:00
8:53 AM,52.0,21.9,31,29.33,10.0,WNW,17.3,26.5,N/A,,Partly Cloudy,300,2006-01-01 15:53:00
9:53 AM,54.0,21.9,29,29.37,10.0,West,23.0,26.5,N/A,,Clear,270,2006-01-01 16:53:00
10:53 AM,55.9,27.0,33,29.38,10.0,North,8.1,-,N/A,,Scattered Clouds,360,2006-01-01 17:53:00
11:53 AM,57.0,28.0,33,29.37,10.0,North,15.0,-,N/A,,Mostly Cloudy,10,2006-01-01 18:53:00
12:53 PM,57.9,30.9,36,29.35,10.0,NNE,10.4,-,N/A,,Clear,20,2006-01-01 19:53:00
1:53 PM,57.9,28.0,32,29.37,10.0,Variable,6.9,-,N/A,,Mostly Cloudy,0,2006-01-01 20:53:00
2:53 PM,62.6,12.2,14,29.51,10.0,WNW,24.2,35.7,N/A,,Mostly Cloudy,300,2006-01-01 21:53:00
3:53 PM,59.0,10.4,15,29.56,10.0,West,19.6,23.0,N/A,,Clear,280,2006-01-01 22:53:00
4:53 PM,48.2,12.2,24,29.62,10.0,West,5.8,-,N/A,,Clear,280,2006-01-01 23:53:00
5:53 PM,51.1,9.0,18,29.60,10.0,West,16.1,-,N/A,,Clear,280,2006-01-02 00:53:00
6:53 PM,48.0,10.0,22,29.65,10.0,West,19.6,-,N/A,,Clear,260,2006-01-02 01:53:00
7:53 PM,45.0,9.0,23,29.66,10.0,WNW,9.2,-,N/A,,Clear,290,2006-01-02 02:53:00
8:53 PM,39.0,9.0,29,29.72,10.0,WNW,9.2,-,N/A,,Clear,290,2006-01-02 03:53:00
9:53 PM,42.1,9.0,26,29.74,10.0,WNW,13.8,-,N/A,,Clear,290,2006-01-02 04:53:00
10:53 PM,43.0,9.0,25,29.75,10.0,SW,15.0,-,N/A,,Clear,230,2006-01-02 05:53:00
11:53 PM,36.0,7.0,30,29.80,10.0,West,6.9,-,N/A,,Clear,280,2006-01-02 06:53:00